owner,sensor,date,latitude,longitude,vertical_datum,sea_water_practical_salinity,qcFlag 
DISL,ioos:station:DISL:CATA:1,2019-04-01T00:00:00Z,30.3085,-88.1395,2.5,12.6,11111222 
DISL,ioos:station:DISL:CATA:1,2019-04-01T00:30:00Z,30.3085,-88.1395,2.517,13.48,1111122 
DISL,ioos:station:DISL:CATA:1,2019-04-01T01:00:00Z,30.3085,-88.1395,2.5,13.4,11111222 
DISL,ioos:station:DISL:CATA:1,2019-04-01T01:30:00Z,30.3085,-88.1395,2.49,14.1,1111122 
DISL,ioos:station:DISL:CATA:1,2019-04-01T02:00:00Z,30.3085,-88.1395,2.5,14.5,11111222 
DISL,ioos:station:DISL:CATA:1,2019-04-01T02:30:00Z,30.3085,-88.1395,2.493,14.37,1111122 
DISL,ioos:station:DISL:CATA:1,2019-04-01T03:00:00Z,30.3085,-88.1395,2.5,14.3,11111222 
DISL,ioos:station:DISL:CATA:1,2019-04-01T03:30:00Z,30.3085,-88.1395,2.466,14.42,1111122 
DISL,ioos:station:DISL:CATA:1,2019-04-01T04:00:00Z,30.3085,-88.1395,2.5,14.4,11111222 
DISL,ioos:station:DISL:CATA:1,2019-04-01T04:30:00Z,30.3085,-88.1395,2.466,14.21,1111122 
DISL,ioos:station:DISL:CATA:1,2019-04-01T05:00:00Z,30.3085,-88.1395,2.4,13.8,11111222 
DISL,ioos:station:DISL:CATA:1,2019-04-01T05:30:00Z,30.3085,-88.1395,2.411,14.25,1111122 
DISL,ioos:station:DISL:CATA:1,2019-04-01T06:30:00Z,30.3085,-88.1395,2.354,10.98,1111122 
DISL,ioos:station:DISL:CATA:1,2019-04-01T07:00:00Z,30.3085,-88.1395,2.3,10.5,11111222 
DISL,ioos:station:DISL:CATA:1,2019-04-01T07:30:00Z,30.3085,-88.1395,2.285,11.09,1111122 
DISL,ioos:station:DISL:CATA:1,2019-04-01T08:00:00Z,30.3085,-88.1395,2.3,11.2,11111222 
DISL,ioos:station:DISL:CATA:1,2019-04-01T08:30:00Z,30.3085,-88.1395,2.244,10.01,1111122 
DISL,ioos:station:DISL:CATA:1,2019-04-01T09:00:00Z,30.3085,-88.1395,2.2,8.6,11111222 
DISL,ioos:station:DISL:CATA:1,2019-04-01T09:30:00Z,30.3085,-88.1395,2.177,8.42,1111122 
DISL,ioos:station:DISL:CATA:1,2019-04-01T10:00:00Z,30.3085,-88.1395,2.2,8.0,11111222 
DISL,ioos:station:DISL:CATA:1,2019-04-01T10:30:00Z,30.3085,-88.1395,2.172,7.78,1111122 
DISL,ioos:station:DISL:CATA:1,2019-04-01T11:00:00Z,30.3085,-88.1395,2.2,7.4,11111222 
DISL,ioos:station:DISL:CATA:1,2019-04-01T11:30:00Z,30.3085,-88.1395,2.207,7.19,1111122 
DISL,ioos:station:DISL:CATA:1,2019-04-01T12:00:00Z,30.3085,-88.1395,2.3,7.0,11111222 
DISL,ioos:station:DISL:CATA:1,2019-04-01T12:30:00Z,30.3085,-88.1395,2.241,6.86,1111122 
DISL,ioos:station:DISL:CATA:1,2019-04-01T13:00:00Z,30.3085,-88.1395,2.3,7.2,11111222 
DISL,ioos:station:DISL:CATA:1,2019-04-01T13:30:00Z,30.3085,-88.1395,2.262,7.25,1111122 
DISL,ioos:station:DISL:CATA:1,2019-04-01T14:00:00Z,30.3085,-88.1395,2.3,7.0,11111222 
DISL,ioos:station:DISL:CATA:1,2019-04-01T14:30:00Z,30.3085,-88.1395,2.25,6.81,1111122 
DISL,ioos:station:DISL:CATA:1,2019-04-01T15:00:00Z,30.3085,-88.1395,2.3,6.8,11111222 
DISL,ioos:station:DISL:CATA:1,2019-04-01T15:30:00Z,30.3085,-88.1395,2.263,6.72,1111122 
DISL,ioos:station:DISL:CATA:1,2019-04-01T16:00:00Z,30.3085,-88.1395,2.3,7.1,11111222 
DISL,ioos:station:DISL:CATA:1,2019-04-01T16:30:00Z,30.3085,-88.1395,2.325,7.21,1111122 
DISL,ioos:station:DISL:CATA:1,2019-04-01T17:00:00Z,30.3085,-88.1395,2.4,7.0,11111222 
DISL,ioos:station:DISL:CATA:1,2019-04-01T17:30:00Z,30.3085,-88.1395,2.382,6.9,1111122 
DISL,ioos:station:DISL:CATA:1,2019-04-01T18:00:00Z,30.3085,-88.1395,2.4,6.8,11111222 
DISL,ioos:station:DISL:CATA:1,2019-04-01T18:30:00Z,30.3085,-88.1395,2.409,6.75,1111122 
DISL,ioos:station:DISL:CATA:1,2019-04-01T19:00:00Z,30.3085,-88.1395,2.4,6.9,11111222 
DISL,ioos:station:DISL:CATA:1,2019-04-01T19:30:00Z,30.3085,-88.1395,2.443,6.97,1111122 
DISL,ioos:station:DISL:CATA:1,2019-04-01T20:00:00Z,30.3085,-88.1395,2.5,7.3,11111222 
DISL,ioos:station:DISL:CATA:1,2019-04-01T20:30:00Z,30.3085,-88.1395,2.472,7.74,1111122 
DISL,ioos:station:DISL:CATA:1,2019-04-01T21:00:00Z,30.3085,-88.1395,2.5,8.2,11111222 
DISL,ioos:station:DISL:CATA:1,2019-04-01T21:30:00Z,30.3085,-88.1395,2.48,8.91,1111122 
DISL,ioos:station:DISL:CATA:1,2019-04-01T22:00:00Z,30.3085,-88.1395,2.5,9.7,11111222 
DISL,ioos:station:DISL:CATA:1,2019-04-01T22:30:00Z,30.3085,-88.1395,2.511,9.95,1111122 
DISL,ioos:station:DISL:CATA:1,2019-04-01T23:00:00Z,30.3085,-88.1395,2.5,10.5,11111222 
DISL,ioos:station:DISL:CATA:1,2019-04-01T23:30:00Z,30.3085,-88.1395,2.553,11.03,1111122 
DISL,ioos:station:DISL:CATA:1,2019-04-02T00:00:00Z,30.3085,-88.1395,2.6,11.8,11111222 
DISL,ioos:station:DISL:CATA:1,2019-04-02T00:30:00Z,30.3085,-88.1395,2.575,12.24,1111122 
DISL,ioos:station:DISL:CATA:1,2019-04-02T01:00:00Z,30.3085,-88.1395,2.6,12.4,11111222 
DISL,ioos:station:DISL:CATA:1,2019-04-02T01:30:00Z,30.3085,-88.1395,2.596,12.44,1111122 
DISL,ioos:station:DISL:CATA:1,2019-04-02T02:00:00Z,30.3085,-88.1395,2.6,12.6,11111222 
DISL,ioos:station:DISL:CATA:1,2019-04-02T02:30:00Z,30.3085,-88.1395,2.588,12.71,1111122 
DISL,ioos:station:DISL:CATA:1,2019-04-02T03:00:00Z,30.3085,-88.1395,2.6,13.2,11111222 
DISL,ioos:station:DISL:CATA:1,2019-04-02T03:30:00Z,30.3085,-88.1395,2.59,13.05,1111122 
DISL,ioos:station:DISL:CATA:1,2019-04-02T04:00:00Z,30.3085,-88.1395,2.6,13.3,11111222 
DISL,ioos:station:DISL:CATA:1,2019-04-02T04:30:00Z,30.3085,-88.1395,2.565,13.57,1111122 
DISL,ioos:station:DISL:CATA:1,2019-04-02T05:00:00Z,30.3085,-88.1395,2.6,13.8,11111222 
DISL,ioos:station:DISL:CATA:1,2019-04-02T05:30:00Z,30.3085,-88.1395,2.5,13.9,11111222 
DISL,ioos:station:DISL:CATA:1,2019-04-02T06:00:00Z,30.3085,-88.1395,2.463,14.94,1111122 
DISL,ioos:station:DISL:CATA:1,2019-04-02T06:30:00Z,30.3085,-88.1395,2.427,15.02,1111122 
DISL,ioos:station:DISL:CATA:1,2019-04-02T07:00:00Z,30.3085,-88.1395,2.4,14.0,11111222 
DISL,ioos:station:DISL:CATA:1,2019-04-02T07:30:00Z,30.3085,-88.1395,2.368,10.86,1111122 
DISL,ioos:station:DISL:CATA:1,2019-04-02T08:00:00Z,30.3085,-88.1395,2.3,9.1,11111222 
DISL,ioos:station:DISL:CATA:1,2019-04-02T08:30:00Z,30.3085,-88.1395,2.321,8.97,1111122 
DISL,ioos:station:DISL:CATA:1,2019-04-02T09:00:00Z,30.3085,-88.1395,2.3,9.1,11111222 
DISL,ioos:station:DISL:CATA:1,2019-04-02T09:30:00Z,30.3085,-88.1395,2.309,8.94,1111122 
DISL,ioos:station:DISL:CATA:1,2019-04-02T10:00:00Z,30.3085,-88.1395,2.3,9.1,11111222 
DISL,ioos:station:DISL:CATA:1,2019-04-02T10:30:00Z,30.3085,-88.1395,2.296,9.04,1111122 
DISL,ioos:station:DISL:CATA:1,2019-04-02T11:00:00Z,30.3085,-88.1395,2.3,9.0,11111222 
DISL,ioos:station:DISL:CATA:1,2019-04-02T11:30:00Z,30.3085,-88.1395,2.227,8.86,1111122 
DISL,ioos:station:DISL:CATA:1,2019-04-02T12:00:00Z,30.3085,-88.1395,2.2,9.1,11111222 
DISL,ioos:station:DISL:CATA:1,2019-04-02T12:30:00Z,30.3085,-88.1395,2.233,8.92,1111122 
DISL,ioos:station:DISL:CATA:1,2019-04-02T13:00:00Z,30.3085,-88.1395,2.2,8.7,11111222 
DISL,ioos:station:DISL:CATA:1,2019-04-02T13:30:00Z,30.3085,-88.1395,2.245,8.44,1111122 
DISL,ioos:station:DISL:CATA:1,2019-04-02T14:00:00Z,30.3085,-88.1395,2.3,8.2,11111222 
DISL,ioos:station:DISL:CATA:1,2019-04-02T14:30:00Z,30.3085,-88.1395,2.316,8.15,1111122 
DISL,ioos:station:DISL:CATA:1,2019-04-02T15:00:00Z,30.3085,-88.1395,2.3,8.1,11111222 
DISL,ioos:station:DISL:CATA:1,2019-04-02T15:30:00Z,30.3085,-88.1395,2.329,8.3,1111122 
DISL,ioos:station:DISL:CATA:1,2019-04-02T16:00:00Z,30.3085,-88.1395,2.4,8.5,11111222 
DISL,ioos:station:DISL:CATA:1,2019-04-02T16:30:00Z,30.3085,-88.1395,2.378,8.72,1111122 
DISL,ioos:station:DISL:CATA:1,2019-04-02T17:00:00Z,30.3085,-88.1395,2.4,8.8,11111222 
DISL,ioos:station:DISL:CATA:1,2019-04-02T17:30:00Z,30.3085,-88.1395,2.381,8.88,1111122 
DISL,ioos:station:DISL:CATA:1,2019-04-02T18:00:00Z,30.3085,-88.1395,2.4,8.7,11111222 
DISL,ioos:station:DISL:CATA:1,2019-04-02T18:30:00Z,30.3085,-88.1395,2.402,8.87,1111122 
DISL,ioos:station:DISL:CATA:1,2019-04-02T19:00:00Z,30.3085,-88.1395,2.4,9.8,11111222 
DISL,ioos:station:DISL:CATA:1,2019-04-02T19:30:00Z,30.3085,-88.1395,2.402,10.94,1111122 
DISL,ioos:station:DISL:CATA:1,2019-04-02T20:00:00Z,30.3085,-88.1395,2.4,11.4,11111222 
DISL,ioos:station:DISL:CATA:1,2019-04-02T20:30:00Z,30.3085,-88.1395,2.433,11.56,1111122 
DISL,ioos:station:DISL:CATA:1,2019-04-02T21:00:00Z,30.3085,-88.1395,2.4,12.3,11111222 
DISL,ioos:station:DISL:CATA:1,2019-04-02T21:30:00Z,30.3085,-88.1395,2.436,12.71,1111122 
DISL,ioos:station:DISL:CATA:1,2019-04-02T22:00:00Z,30.3085,-88.1395,2.5,13.0,11111222 
DISL,ioos:station:DISL:CATA:1,2019-04-02T22:30:00Z,30.3085,-88.1395,2.448,12.71,1111122 
DISL,ioos:station:DISL:CATA:1,2019-04-02T23:00:00Z,30.3085,-88.1395,2.5,12.7,11111222 
DISL,ioos:station:DISL:CATA:1,2019-04-02T23:30:00Z,30.3085,-88.1395,2.467,13.07,1111122 
DISL,ioos:station:DISL:CATA:1,2019-04-03T00:00:00Z,30.3085,-88.1395,2.5,13.4,11111222 
DISL,ioos:station:DISL:CATA:1,2019-04-03T00:30:00Z,30.3085,-88.1395,2.495,13.84,1111122 
DISL,ioos:station:DISL:CATA:1,2019-04-03T01:00:00Z,30.3085,-88.1395,2.5,14.0,11111222 
DISL,ioos:station:DISL:CATA:1,2019-04-03T01:30:00Z,30.3085,-88.1395,2.512,13.95,1111122 
DISL,ioos:station:DISL:CATA:1,2019-04-03T02:00:00Z,30.3085,-88.1395,2.5,13.9,11111222 
DISL,ioos:station:DISL:CATA:1,2019-04-03T02:30:00Z,30.3085,-88.1395,2.504,13.98,1111122 
DISL,ioos:station:DISL:CATA:1,2019-04-03T03:00:00Z,30.3085,-88.1395,2.5,14.0,11111222 
DISL,ioos:station:DISL:CATA:1,2019-04-03T03:30:00Z,30.3085,-88.1395,2.487,14.06,1111122 
DISL,ioos:station:DISL:CATA:1,2019-04-03T04:00:00Z,30.3085,-88.1395,2.5,14.1,11111222 
DISL,ioos:station:DISL:CATA:1,2019-04-03T04:30:00Z,30.3085,-88.1395,2.467,14.83,1111122 
DISL,ioos:station:DISL:CATA:1,2019-04-03T05:00:00Z,30.3085,-88.1395,2.5,15.2,11111222 
DISL,ioos:station:DISL:CATA:1,2019-04-03T05:30:00Z,30.3085,-88.1395,2.441,15.23,1111122 
DISL,ioos:station:DISL:CATA:1,2019-04-03T06:30:00Z,30.3085,-88.1395,2.396,14.8,1111122 
DISL,ioos:station:DISL:CATA:1,2019-04-03T07:00:00Z,30.3085,-88.1395,2.4,14.0,11111222 
DISL,ioos:station:DISL:CATA:1,2019-04-03T07:30:00Z,30.3085,-88.1395,2.347,12.81,1111122 
DISL,ioos:station:DISL:CATA:1,2019-04-03T08:00:00Z,30.3085,-88.1395,2.3,10.9,11111222 
DISL,ioos:station:DISL:CATA:1,2019-04-03T08:30:00Z,30.3085,-88.1395,2.298,10.56,1111122 
DISL,ioos:station:DISL:CATA:1,2019-04-03T09:00:00Z,30.3085,-88.1395,2.3,9.4,11111222 
DISL,ioos:station:DISL:CATA:1,2019-04-03T09:30:00Z,30.3085,-88.1395,2.257,8.87,1111122 
DISL,ioos:station:DISL:CATA:1,2019-04-03T10:00:00Z,30.3085,-88.1395,2.2,8.8,11111222 
DISL,ioos:station:DISL:CATA:1,2019-04-03T10:30:00Z,30.3085,-88.1395,2.243,8.75,1111122 
DISL,ioos:station:DISL:CATA:1,2019-04-03T11:00:00Z,30.3085,-88.1395,2.2,8.6,11111222 
DISL,ioos:station:DISL:CATA:1,2019-04-03T11:30:00Z,30.3085,-88.1395,2.247,8.37,1111122 
DISL,ioos:station:DISL:CATA:1,2019-04-03T12:00:00Z,30.3085,-88.1395,2.3,8.2,11111222 
DISL,ioos:station:DISL:CATA:1,2019-04-03T12:30:00Z,30.3085,-88.1395,2.258,8.22,1111122 
DISL,ioos:station:DISL:CATA:1,2019-04-03T13:00:00Z,30.3085,-88.1395,2.3,8.2,11111222 
DISL,ioos:station:DISL:CATA:1,2019-04-03T13:30:00Z,30.3085,-88.1395,2.272,8.24,1111122 
DISL,ioos:station:DISL:CATA:1,2019-04-03T14:00:00Z,30.3085,-88.1395,2.3,8.3,11111222 
DISL,ioos:station:DISL:CATA:1,2019-04-03T14:30:00Z,30.3085,-88.1395,2.289,8.33,1111122 
DISL,ioos:station:DISL:CATA:1,2019-04-03T15:00:00Z,30.3085,-88.1395,2.3,8.6,11111222 
DISL,ioos:station:DISL:CATA:1,2019-04-03T15:30:00Z,30.3085,-88.1395,2.299,8.79,1111122 
DISL,ioos:station:DISL:CATA:1,2019-04-03T16:00:00Z,30.3085,-88.1395,2.3,8.8,11111222 
DISL,ioos:station:DISL:CATA:1,2019-04-03T16:30:00Z,30.3085,-88.1395,2.329,9.07,1111122 
DISL,ioos:station:DISL:CATA:1,2019-04-03T17:00:00Z,30.3085,-88.1395,2.3,9.2,11111222 
DISL,ioos:station:DISL:CATA:1,2019-04-03T17:30:00Z,30.3085,-88.1395,2.355,9.38,1111122 
DISL,ioos:station:DISL:CATA:1,2019-04-03T18:00:00Z,30.3085,-88.1395,2.4,9.4,11111222 
DISL,ioos:station:DISL:CATA:1,2019-04-03T18:30:00Z,30.3085,-88.1395,2.376,9.44,1111122 
DISL,ioos:station:DISL:CATA:1,2019-04-03T19:00:00Z,30.3085,-88.1395,2.4,9.4,11111222 
DISL,ioos:station:DISL:CATA:1,2019-04-03T19:30:00Z,30.3085,-88.1395,2.37,9.27,1111122 
DISL,ioos:station:DISL:CATA:1,2019-04-03T20:00:00Z,30.3085,-88.1395,2.4,9.3,11111222 
DISL,ioos:station:DISL:CATA:1,2019-04-03T20:30:00Z,30.3085,-88.1395,2.337,9.42,1111122 
DISL,ioos:station:DISL:CATA:1,2019-04-03T21:00:00Z,30.3085,-88.1395,2.3,9.1,11111222 
DISL,ioos:station:DISL:CATA:1,2019-04-03T21:30:00Z,30.3085,-88.1395,2.314,8.56,1111122 
DISL,ioos:station:DISL:CATA:1,2019-04-03T22:00:00Z,30.3085,-88.1395,2.3,8.2,11111222 
DISL,ioos:station:DISL:CATA:1,2019-04-03T22:30:00Z,30.3085,-88.1395,2.334,8.06,1111122 
DISL,ioos:station:DISL:CATA:1,2019-04-03T23:00:00Z,30.3085,-88.1395,2.4,8.4,11111222 
DISL,ioos:station:DISL:CATA:1,2019-04-03T23:30:00Z,30.3085,-88.1395,2.384,8.67,1111122 
DISL,ioos:station:DISL:CATA:1,2019-04-04T00:00:00Z,30.3085,-88.1395,2.4,9.1,11111222 
DISL,ioos:station:DISL:CATA:1,2019-04-04T00:30:00Z,30.3085,-88.1395,2.415,9.75,1111122 
DISL,ioos:station:DISL:CATA:1,2019-04-04T01:00:00Z,30.3085,-88.1395,2.4,9.8,11111222 
DISL,ioos:station:DISL:CATA:1,2019-04-04T01:30:00Z,30.3085,-88.1395,2.437,9.79,1111122 
DISL,ioos:station:DISL:CATA:1,2019-04-04T02:00:00Z,30.3085,-88.1395,2.4,9.8,11111222 
DISL,ioos:station:DISL:CATA:1,2019-04-04T02:30:00Z,30.3085,-88.1395,2.438,10.08,1111122 
DISL,ioos:station:DISL:CATA:1,2019-04-04T03:00:00Z,30.3085,-88.1395,2.4,10.3,11111222 
DISL,ioos:station:DISL:CATA:1,2019-04-04T03:30:00Z,30.3085,-88.1395,2.45,10.44,1111122 
DISL,ioos:station:DISL:CATA:1,2019-04-04T04:00:00Z,30.3085,-88.1395,2.5,10.3,11111222 
DISL,ioos:station:DISL:CATA:1,2019-04-04T04:30:00Z,30.3085,-88.1395,2.465,10.16,1111122 
DISL,ioos:station:DISL:CATA:1,2019-04-04T05:00:00Z,30.3085,-88.1395,2.5,10.9,11111222 
DISL,ioos:station:DISL:CATA:1,2019-04-04T05:30:00Z,30.3085,-88.1395,2.476,11.25,1111122 
DISL,ioos:station:DISL:CATA:1,2019-04-04T06:30:00Z,30.3085,-88.1395,2.445,11.74,1111122 
DISL,ioos:station:DISL:CATA:1,2019-04-04T07:00:00Z,30.3085,-88.1395,2.5,11.8,11111222 
DISL,ioos:station:DISL:CATA:1,2019-04-04T07:30:00Z,30.3085,-88.1395,2.448,11.83,1111122 
DISL,ioos:station:DISL:CATA:1,2019-04-04T08:00:00Z,30.3085,-88.1395,2.4,11.8,11111222 
DISL,ioos:station:DISL:CATA:1,2019-04-04T08:30:00Z,30.3085,-88.1395,2.401,11.74,1111122 
DISL,ioos:station:DISL:CATA:1,2019-04-04T09:00:00Z,30.3085,-88.1395,2.4,11.6,11111222 
DISL,ioos:station:DISL:CATA:1,2019-04-04T09:30:00Z,30.3085,-88.1395,2.349,11.37,1111122 
DISL,ioos:station:DISL:CATA:1,2019-04-04T10:00:00Z,30.3085,-88.1395,2.3,11.1,11111222 
DISL,ioos:station:DISL:CATA:1,2019-04-04T10:30:00Z,30.3085,-88.1395,2.308,10.94,1111122 
DISL,ioos:station:DISL:CATA:1,2019-04-04T11:00:00Z,30.3085,-88.1395,2.3,10.9,11111222 
DISL,ioos:station:DISL:CATA:1,2019-04-04T11:30:00Z,30.3085,-88.1395,2.289,10.72,1111122 
DISL,ioos:station:DISL:CATA:1,2019-04-04T12:00:00Z,30.3085,-88.1395,2.3,10.8,11111222 
DISL,ioos:station:DISL:CATA:1,2019-04-04T12:30:00Z,30.3085,-88.1395,2.3,10.96,1111122 
DISL,ioos:station:DISL:CATA:1,2019-04-04T13:00:00Z,30.3085,-88.1395,2.3,11.1,11111222 
DISL,ioos:station:DISL:CATA:1,2019-04-04T13:30:00Z,30.3085,-88.1395,2.35,11.3,1111122 
DISL,ioos:station:DISL:CATA:1,2019-04-04T14:00:00Z,30.3085,-88.1395,2.4,11.5,11111222 
DISL,ioos:station:DISL:CATA:1,2019-04-04T14:30:00Z,30.3085,-88.1395,2.381,11.79,1111122 
DISL,ioos:station:DISL:CATA:1,2019-04-04T15:00:00Z,30.3085,-88.1395,2.4,12.2,11111222 
DISL,ioos:station:DISL:CATA:1,2019-04-04T15:30:00Z,30.3085,-88.1395,2.423,12.23,1111122 
DISL,ioos:station:DISL:CATA:1,2019-04-04T16:00:00Z,30.3085,-88.1395,2.4,11.7,11111222 
DISL,ioos:station:DISL:CATA:1,2019-04-04T16:30:00Z,30.3085,-88.1395,2.47,11.49,1111122 
DISL,ioos:station:DISL:CATA:1,2019-04-04T17:00:00Z,30.3085,-88.1395,2.5,11.5,11111222 
DISL,ioos:station:DISL:CATA:1,2019-04-04T17:30:00Z,30.3085,-88.1395,2.437,11.25,1111122 
DISL,ioos:station:DISL:CATA:1,2019-04-04T18:00:00Z,30.3085,-88.1395,2.5,11.1,11111222 
DISL,ioos:station:DISL:CATA:1,2019-04-04T18:30:00Z,30.3085,-88.1395,2.484,10.83,1111122 
DISL,ioos:station:DISL:CATA:1,2019-04-04T19:00:00Z,30.3085,-88.1395,2.4,10.8,11111222 
DISL,ioos:station:DISL:CATA:1,2019-04-04T19:30:00Z,30.3085,-88.1395,2.408,11.23,1111122 
DISL,ioos:station:DISL:CATA:1,2019-04-04T20:00:00Z,30.3085,-88.1395,2.4,11.6,11111222 
DISL,ioos:station:DISL:CATA:1,2019-04-04T20:30:00Z,30.3085,-88.1395,2.306,10.89,1111122 
DISL,ioos:station:DISL:CATA:1,2019-04-04T21:00:00Z,30.3085,-88.1395,2.3,11.0,11111222 
DISL,ioos:station:DISL:CATA:1,2019-04-04T21:30:00Z,30.3085,-88.1395,2.288,10.87,1111122 
DISL,ioos:station:DISL:CATA:1,2019-04-04T22:00:00Z,30.3085,-88.1395,2.3,10.8,11111222 
DISL,ioos:station:DISL:CATA:1,2019-04-04T22:30:00Z,30.3085,-88.1395,2.317,10.83,1111122 
DISL,ioos:station:DISL:CATA:1,2019-04-04T23:00:00Z,30.3085,-88.1395,2.3,10.9,11111222 
DISL,ioos:station:DISL:CATA:1,2019-04-04T23:30:00Z,30.3085,-88.1395,2.233,11.21,1111122 
DISL,ioos:station:DISL:CATA:1,2019-04-05T00:00:00Z,30.3085,-88.1395,2.2,11.1,11111222 
DISL,ioos:station:DISL:CATA:1,2019-04-05T00:30:00Z,30.3085,-88.1395,2.269,10.82,1111122 
DISL,ioos:station:DISL:CATA:1,2019-04-05T01:00:00Z,30.3085,-88.1395,2.3,10.7,11111222 
DISL,ioos:station:DISL:CATA:1,2019-04-05T01:30:00Z,30.3085,-88.1395,2.356,10.65,1111122 
DISL,ioos:station:DISL:CATA:1,2019-04-05T02:00:00Z,30.3085,-88.1395,2.5,10.8,11111222 
DISL,ioos:station:DISL:CATA:1,2019-04-05T02:30:00Z,30.3085,-88.1395,2.55,11.08,1111122 
DISL,ioos:station:DISL:CATA:1,2019-04-05T03:00:00Z,30.3085,-88.1395,2.5,10.9,11111222 
DISL,ioos:station:DISL:CATA:1,2019-04-05T03:30:00Z,30.3085,-88.1395,2.546,11.16,1111122 
DISL,ioos:station:DISL:CATA:1,2019-04-05T04:00:00Z,30.3085,-88.1395,2.6,11.3,11111222 
DISL,ioos:station:DISL:CATA:1,2019-04-05T04:30:00Z,30.3085,-88.1395,2.601,11.52,1111122 
DISL,ioos:station:DISL:CATA:1,2019-04-05T05:00:00Z,30.3085,-88.1395,2.5,11.3,11111222 
DISL,ioos:station:DISL:CATA:1,2019-04-05T05:30:00Z,30.3085,-88.1395,2.532,10.88,1111122 
DISL,ioos:station:DISL:CATA:1,2019-04-05T06:30:00Z,30.3085,-88.1395,2.493,10.69,1111122 
DISL,ioos:station:DISL:CATA:1,2019-04-05T07:00:00Z,30.3085,-88.1395,2.5,10.5,11111222 
DISL,ioos:station:DISL:CATA:1,2019-04-05T07:30:00Z,30.3085,-88.1395,2.547,10.41,1111122 
DISL,ioos:station:DISL:CATA:1,2019-04-05T08:00:00Z,30.3085,-88.1395,2.6,10.4,11111222 
DISL,ioos:station:DISL:CATA:1,2019-04-05T08:30:00Z,30.3085,-88.1395,2.548,10.45,1111122 
DISL,ioos:station:DISL:CATA:1,2019-04-05T09:00:00Z,30.3085,-88.1395,2.6,10.6,11111222 
DISL,ioos:station:DISL:CATA:1,2019-04-05T09:30:00Z,30.3085,-88.1395,2.53,10.61,1111122 
DISL,ioos:station:DISL:CATA:1,2019-04-05T10:00:00Z,30.3085,-88.1395,2.5,10.8,11111222 
DISL,ioos:station:DISL:CATA:1,2019-04-05T10:30:00Z,30.3085,-88.1395,2.497,10.87,1111122 
DISL,ioos:station:DISL:CATA:1,2019-04-05T11:00:00Z,30.3085,-88.1395,2.5,10.7,11111222 
DISL,ioos:station:DISL:CATA:1,2019-04-05T11:30:00Z,30.3085,-88.1395,2.523,10.54,1111122 
DISL,ioos:station:DISL:CATA:1,2019-04-05T12:00:00Z,30.3085,-88.1395,2.5,10.8,11111222 
DISL,ioos:station:DISL:CATA:1,2019-04-05T12:30:00Z,30.3085,-88.1395,2.523,10.89,1111122 
DISL,ioos:station:DISL:CATA:1,2019-04-05T13:00:00Z,30.3085,-88.1395,2.5,10.9,11111222 
DISL,ioos:station:DISL:CATA:1,2019-04-05T13:30:00Z,30.3085,-88.1395,2.524,11.1,1111122 
DISL,ioos:station:DISL:CATA:1,2019-04-05T14:00:00Z,30.3085,-88.1395,2.5,11.1,11111222 
DISL,ioos:station:DISL:CATA:1,2019-04-05T14:30:00Z,30.3085,-88.1395,2.522,11.14,1111122 
DISL,ioos:station:DISL:CATA:1,2019-04-05T15:00:00Z,30.3085,-88.1395,2.5,11.4,11111222 
DISL,ioos:station:DISL:CATA:1,2019-04-05T15:30:00Z,30.3085,-88.1395,2.546,11.5,1111122 
DISL,ioos:station:DISL:CATA:1,2019-04-05T16:00:00Z,30.3085,-88.1395,2.5,11.4,11111222 
DISL,ioos:station:DISL:CATA:1,2019-04-05T16:30:00Z,30.3085,-88.1395,2.543,11.28,1111122 
DISL,ioos:station:DISL:CATA:1,2019-04-05T17:00:00Z,30.3085,-88.1395,2.6,11.2,11111222 
DISL,ioos:station:DISL:CATA:1,2019-04-05T17:30:00Z,30.3085,-88.1395,2.541,11.03,1111122 
DISL,ioos:station:DISL:CATA:1,2019-04-05T18:00:00Z,30.3085,-88.1395,2.5,11.0,11111222 
DISL,ioos:station:DISL:CATA:1,2019-04-05T18:30:00Z,30.3085,-88.1395,2.534,11.07,1111122 
DISL,ioos:station:DISL:CATA:1,2019-04-05T19:00:00Z,30.3085,-88.1395,2.5,11.1,11111222 
DISL,ioos:station:DISL:CATA:1,2019-04-05T19:30:00Z,30.3085,-88.1395,2.495,11.11,1111122 
DISL,ioos:station:DISL:CATA:1,2019-04-05T20:00:00Z,30.3085,-88.1395,2.5,11.1,11111222 
DISL,ioos:station:DISL:CATA:1,2019-04-05T20:30:00Z,30.3085,-88.1395,2.454,11.07,1111122 
DISL,ioos:station:DISL:CATA:1,2019-04-05T21:00:00Z,30.3085,-88.1395,2.4,10.9,11111222 
DISL,ioos:station:DISL:CATA:1,2019-04-05T21:30:00Z,30.3085,-88.1395,2.419,10.45,1111122 
DISL,ioos:station:DISL:CATA:1,2019-04-05T22:00:00Z,30.3085,-88.1395,2.4,10.5,11111222 
DISL,ioos:station:DISL:CATA:1,2019-04-05T22:30:00Z,30.3085,-88.1395,2.356,10.21,1111122 
DISL,ioos:station:DISL:CATA:1,2019-04-05T23:00:00Z,30.3085,-88.1395,2.4,10.0,11111222 
DISL,ioos:station:DISL:CATA:1,2019-04-05T23:30:00Z,30.3085,-88.1395,2.34,9.89,1111122 
DISL,ioos:station:DISL:CATA:1,2019-04-06T00:00:00Z,30.3085,-88.1395,2.4,10.0,11111222 
DISL,ioos:station:DISL:CATA:1,2019-04-06T00:30:00Z,30.3085,-88.1395,2.361,10.24,1111122 
DISL,ioos:station:DISL:CATA:1,2019-04-06T01:00:00Z,30.3085,-88.1395,2.4,10.4,11111222 
DISL,ioos:station:DISL:CATA:1,2019-04-06T01:30:00Z,30.3085,-88.1395,2.409,10.55,1111122 
DISL,ioos:station:DISL:CATA:1,2019-04-06T02:00:00Z,30.3085,-88.1395,2.4,10.6,11111222 
DISL,ioos:station:DISL:CATA:1,2019-04-06T02:30:00Z,30.3085,-88.1395,2.463,10.9,1111122 
DISL,ioos:station:DISL:CATA:1,2019-04-06T03:00:00Z,30.3085,-88.1395,2.5,10.9,11111222 
DISL,ioos:station:DISL:CATA:1,2019-04-06T03:30:00Z,30.3085,-88.1395,2.486,10.72,1111122 
DISL,ioos:station:DISL:CATA:1,2019-04-06T04:00:00Z,30.3085,-88.1395,2.5,10.6,11111222 
DISL,ioos:station:DISL:CATA:1,2019-04-06T04:30:00Z,30.3085,-88.1395,2.463,10.66,1111122 
DISL,ioos:station:DISL:CATA:1,2019-04-06T05:00:00Z,30.3085,-88.1395,2.5,10.7,11111222 
DISL,ioos:station:DISL:CATA:1,2019-04-06T05:30:00Z,30.3085,-88.1395,2.521,10.65,1111122 
DISL,ioos:station:DISL:CATA:1,2019-04-06T06:30:00Z,30.3085,-88.1395,2.565,10.59,1111122 
DISL,ioos:station:DISL:CATA:1,2019-04-06T07:00:00Z,30.3085,-88.1395,2.6,10.6,11111222 
DISL,ioos:station:DISL:CATA:1,2019-04-06T07:30:00Z,30.3085,-88.1395,2.594,10.69,1111122 
DISL,ioos:station:DISL:CATA:1,2019-04-06T08:00:00Z,30.3085,-88.1395,2.6,11.1,11111222 
DISL,ioos:station:DISL:CATA:1,2019-04-06T08:30:00Z,30.3085,-88.1395,2.598,10.83,1111122 
DISL,ioos:station:DISL:CATA:1,2019-04-06T09:00:00Z,30.3085,-88.1395,2.6,11.3,11111222 
DISL,ioos:station:DISL:CATA:1,2019-04-06T09:30:00Z,30.3085,-88.1395,2.577,11.74,1111122 
DISL,ioos:station:DISL:CATA:1,2019-04-06T10:00:00Z,30.3085,-88.1395,2.6,12.1,11111222 
DISL,ioos:station:DISL:CATA:1,2019-04-06T10:30:00Z,30.3085,-88.1395,2.55,12.11,1111122 
DISL,ioos:station:DISL:CATA:1,2019-04-06T11:00:00Z,30.3085,-88.1395,2.5,12.1,11111222 
DISL,ioos:station:DISL:CATA:1,2019-04-06T11:30:00Z,30.3085,-88.1395,2.516,11.67,1111122 
DISL,ioos:station:DISL:CATA:1,2019-04-06T12:00:00Z,30.3085,-88.1395,2.5,10.7,11111222 
DISL,ioos:station:DISL:CATA:1,2019-04-06T12:30:00Z,30.3085,-88.1395,2.529,10.2,1111122 
DISL,ioos:station:DISL:CATA:1,2019-04-06T13:00:00Z,30.3085,-88.1395,2.5,10.3,11111222 
DISL,ioos:station:DISL:CATA:1,2019-04-06T13:30:00Z,30.3085,-88.1395,2.536,10.41,1111122 
DISL,ioos:station:DISL:CATA:1,2019-04-06T14:00:00Z,30.3085,-88.1395,2.5,10.4,11111222 
DISL,ioos:station:DISL:CATA:1,2019-04-06T14:30:00Z,30.3085,-88.1395,2.546,11.12,1111122 
DISL,ioos:station:DISL:CATA:1,2019-04-06T15:00:00Z,30.3085,-88.1395,2.6,11.3,11111222 
DISL,ioos:station:DISL:CATA:1,2019-04-06T15:30:00Z,30.3085,-88.1395,2.546,11.0,1111122 
DISL,ioos:station:DISL:CATA:1,2019-04-06T16:00:00Z,30.3085,-88.1395,2.5,10.6,11111222 
DISL,ioos:station:DISL:CATA:1,2019-04-06T16:30:00Z,30.3085,-88.1395,2.532,10.73,1111122 
DISL,ioos:station:DISL:CATA:1,2019-04-06T17:00:00Z,30.3085,-88.1395,2.5,16.9,11111222 
DISL,ioos:station:DISL:CATA:1,2019-04-06T17:30:00Z,30.3085,-88.1395,2.503,19.07,1111122 
DISL,ioos:station:DISL:CATA:1,2019-04-06T18:00:00Z,30.3085,-88.1395,2.5,19.3,11111222 